STARLINK-1025

Last updated on Thu Dec 12 2019 00:02:03 GMT+0000 (Coordinated Universal Time)

1 44730U 19074T 19344.83334491 -.00026802 00000-0 -18684-3 0 9995 2 44730 53.0097 25.2408 0001637 15.8930 107.2842 15.73232059 4610
UTC large
Height (km)
Speed (km/s)
/
Latitude / Longitude
Inclination (degrees)
Orbital Period (minutes)
Azimuth
Elevation
Range (km)
Doppler Factor

Next 0 passes for location: London (51.5072 / 0.1276)

Sorry there are no passes over London.